DELTA 1 DEB

Satellite information

Favourite Embed

Satellite Type and Status

DEBRISIN ORBIT

Key statistics

Satellite DELTA 1 DEB at a glance.

Uptime

18430

Days in orbit

Revolutions

≈ 14.8

Per day

Orbit

SSO

Sun Synchronous Orbit

Inclination

98.4

Latest

Satellite identification and parameters

Extended collection of information and parameters for DELTA 1 DEB.

Object identification

Identified? True

Debris? True

Object name: DELTA 1 DEB

International designator: 1975-004AN

Object number (NORAD): 8956

Object ID (CCSDS): 8956

Country: UNITED STATES OF AMERICA (US)

Current information (Y/N): Y

RCS size: LARGE

Orbital parameters

Period: 97.009 minutes

Inclination: 98.3502 deg

SMA: 6993.636 km

Apoapsis: 631.816 km

Periapsis: 599.186 km

RAAN: 353.1473 deg

Eccentricy: 0.0023328

Argument of periapsis: 312.3312 deg

Mean anomaly: 47.5924 deg

Mean motion: 14.84390746 rev/day

Mean motion (dot): 0.00001669 rev/day2

B* drag term: 0.00020485 1/REarth

Two-line elements (TLE)

Creation date: July 8, 2025, 2:27 a.m.

Reference frame: TEME

Reference center: EARTH

Epoch: July 7, 2025, 9:15 p.m. UTC

TLE line 0: 0 DELTA 1 DEB

TLE line 1: 1 08956U 75004AN 25188.88607355 .00001669 00000-0 20485-3 0 9994

TLE line 2: 2 08956 98.3502 353.1473 0023328 312.3312 47.5924 14.84390746610853

Live tracking on map

Real-time ground track for satellite DELTA 1 DEB.

In-orbit conjunctions

A list of the most updated potential collisions computed for object DELTA 1 DEB.

Target Orbit TCA Probability of collision Miss distance Type
SL-14 R/B LEO 2025-01-24 08:31:45 0.0001633374 63.0 (m) ROCKET BODY
CZ-6A DEB LEO 2024-12-24 09:05:32 0.0001113482 131.0 (m) DEBRIS
CZ-6A DEB LEO 2024-12-15 03:49:27 0.0001983702 790.0 (m) DEBRIS

Associated space launch

Earth observation satellite

DELTA 1 DEB was lifted into orbit during the mission ‘Delta 2910 | Landsat 2’, on board a Delta 2910 space rocket.

The launch took place on Jan. 22, 1975, 5:55 p.m. from Space Launch Complex 2W.

For more information about the launch, click the button.

Launch to space Delta 2910 | Landsat 2
Delta 2910 | Landsat 2

Agency: N/A

Status: Launch Successful

Launch date: Jan. 22, 1975, 5:55 p.m. UTC

Rocket: Delta 2910

Launch pad: Space Launch Complex 2W

Location: Vandenberg SFB, CA, USA

...

Latest news about this satellite

There are no fresh news available about this satellite. Check back as we update our databases every day.


Newsletter sign-up

Weekly statistics, charts and insights to help you stay on top of the space industry.